Weather in Ashtarak

Armenia     40˚17′52″N   44˚21′42″E
temp.,
°C
wind,
m/s
gust,
m/s
humid.,
%
clouds,
%
prec.,
mm/h
press.,
hPa
HPBL,
m
27 november, fri
fri2701:00+1˚ene22480 0.0 102525
04:00−1˚ene11570 0.0 102622
07:00−2˚ene12550 0.0 102821
10:00+2˚ese12450 0.0 1030150
13:00+5˚se22370 0.0 1029630
16:00+6˚ese22330 0.0 1028634
19:00+3˚ne23420 0.0 103225
22:00+2˚nne23440 0.0 103322
28 november, sat
sat2801:00nne22440 0.0 103422
04:00−1˚ne11500 0.0 103422
07:00−2˚ne11600 0.0 103422
10:00+3˚se00368 0.0 103376
13:00+6˚sw113126 0.0 1029589
16:00+7˚sw113137 0.0 1028598
19:00+2˚sw014416 0.0 102922
22:00+1˚w114757 0.0 103022
29 november, sun
sun2901:00n115168 0.0 102922
04:00−1˚n005635 0.0 102922
07:00−1˚se01670 0.0 102822
10:00+4˚s114319 0.0 102860
13:00+7˚ssw213354 0.0 1024440
16:00+7˚sse213470 0.0 1023343
19:00+4˚ene1146100 0.0 102422
22:00+3˚se1149100 0.0 102522
30 november, mon
mon3001:00+1˚w1154100 0.0 102422
04:00nw116576 0.0 102422
07:00−1˚nne117467 0.0 102322
10:00+4˚ese115235 0.0 1023101
13:00+6˚sse22470 0.0 1020666
16:00+7˚se22437 0.0 1019682
19:00+3˚nne22590 0.0 102122
22:00+2˚nne22610 0.0 102222
1 december, tue
tue101:00+1˚nne12700 0.0 102322
04:00ne11774 0.0 102322
07:00ne118111 0.0 102322
10:00+5˚ene116146 0.0 102465
13:00+7˚s115278 0.0 1022701
16:00+8˚sse124861 0.0 1021826
19:00+4˚n12650 0.0 102322
22:00+3˚nne23620 0.0 102422